| time (UTC) | temp F | wind direction | speed MPH | gust MPH | rain 1hr in | rain 24hr in | rain mn in | humidity % | barometer mb |
| 20260510220421 | 66 | 353 | 7.0 | 8.0 | 0.00 | 0.00 | 0.00 | 44 | 1017.6 |
| 20260510215917 | 67 | 335 | 9.0 | 11.0 | 0.00 | 0.00 | 0.00 | 46 | 1017.5 |
| 20260510215415 | 66 | 344 | 8.0 | 9.0 | 0.00 | 0.00 | 0.00 | 46 | 1017.7 |
| 20260510214913 | 66 | 0 | 9.0 | 10.0 | 0.00 | 0.00 | 0.00 | 46 | 1017.5 |
| 20260510214409 | 68 | 348 | 12.0 | 15.0 | 0.00 | 0.00 | 0.00 | 47 | 1017.1 |
| 20260510213906 | 67 | 11 | 6.0 | 7.0 | 0.00 | 0.00 | 0.00 | 45 | 1017.0 |
| 20260510213403 | 67 | 345 | 6.0 | 7.0 | 0.00 | 0.00 | 0.00 | 44 | 1017.0 |
| 20260510212859 | 67 | 314 | 6.0 | 7.0 | 0.00 | 0.00 | 0.00 | 43 | 1017.1 |
| 20260510212355 | 67 | 265 | 5.0 | 6.0 | 0.00 | 0.00 | 0.00 | 45 | 1016.8 |
| 20260510211847 | 67 | 348 | 7.0 | 8.0 | 0.00 | 0.00 | 0.00 | 46 | 1016.9 |
| 20260510211344 | 67 | 5 | 6.0 | 8.0 | 0.00 | 0.00 | 0.00 | 44 | 1017.1 |
| 20260510210839 | 67 | 331 | 8.0 | 9.0 | 0.00 | 0.00 | 0.00 | 48 | 1016.8 |
| 20260510210334 | 67 | 340 | 2.0 | 2.0 | 0.00 | 0.00 | 0.00 | 43 | 1017.0 |
| 20260510205828 | 67 | 315 | 6.0 | 7.0 | 0.00 | 0.00 | 0.00 | 45 | 1016.9 |
| 20260510205323 | 67 | 336 | 8.0 | 9.0 | 0.00 | 0.00 | 0.00 | 47 | 1017.1 |
| 20260510204820 | 67 | 0 | 9.0 | 9.0 | 0.00 | 0.00 | 0.00 | 46 | 1017.0 |
| 20260510204316 | 67 | 337 | 5.0 | 6.0 | 0.00 | 0.00 | 0.00 | 46 | 1017.0 |
| 20260510203813 | 67 | 317 | 7.0 | 8.0 | 0.00 | 0.00 | 0.00 | 44 | 1017.0 |
| 20260510203311 | 68 | 334 | 5.0 | 7.0 | 0.00 | 0.00 | 0.00 | 42 | 1016.9 |
| 20260510202810 | 68 | 270 | 0.0 | 0.0 | 0.00 | 0.00 | 0.00 | 40 | 1017.0 |
| 20260510202307 | 66 | 301 | 5.0 | 7.0 | 0.00 | 0.00 | 0.00 | 44 | 1017.2 |
| 20260510201803 | 66 | 345 | 4.0 | 4.0 | 0.00 | 0.00 | 0.00 | 46 | 1017.1 |
| 20260510201300 | 67 | 275 | 2.0 | 2.0 | 0.00 | 0.00 | 0.00 | 42 | 1017.1 |
| 20260510200757 | 67 | 336 | 7.0 | 8.0 | 0.00 | 0.00 | 0.00 | 44 | 1017.0 |
| 20260510200255 | 67 | 336 | 12.0 | 14.0 | 0.00 | 0.00 | 0.00 | 45 | 1017.0 |
| 20260510195751 | 68 | 356 | 4.0 | 6.0 | 0.00 | 0.00 | 0.00 | 47 | 1017.1 |
| 20260510195247 | 67 | 233 | 2.0 | 3.0 | 0.00 | 0.00 | 0.00 | 43 | 1017.0 |
| 20260510194746 | 68 | 214 | 1.0 | 2.0 | 0.00 | 0.00 | 0.00 | 52 | 1017.1 |
| 20260510194244 | 66 | 325 | 2.0 | 2.0 | 0.00 | 0.00 | 0.00 | 46 | 1017.2 |
| 20260510193740 | 66 | 334 | 6.0 | 7.0 | 0.00 | 0.00 | 0.00 | 46 | 1016.9 |
| 20260510193234 | 66 | 354 | 8.0 | 9.0 | 0.00 | 0.00 | 0.00 | 49 | 1017.1 |
| 20260510192730 | 67 | 355 | 12.0 | 15.0 | 0.00 | 0.00 | 0.00 | 53 | 1017.0 |
| 20260510192226 | 68 | 331 | 9.0 | 10.0 | 0.00 | 0.00 | 0.00 | 50 | 1017.0 |
| 20260510191722 | 67 | 273 | 4.0 | 4.0 | 0.00 | 0.00 | 0.00 | 46 | 1017.0 |
| 20260510191219 | 67 | 343 | 4.0 | 4.0 | 0.00 | 0.00 | 0.00 | 49 | 1017.0 |
| 20260510190716 | 68 | 359 | 6.0 | 8.0 | 0.00 | 0.00 | 0.00 | 50 | 1017.1 |
| 20260510190213 | 67 | 244 | 2.0 | 3.0 | 0.00 | 0.00 | 0.00 | 46 | 1017.1 |
| 20260510185710 | 66 | 275 | 4.0 | 6.0 | 0.00 | 0.00 | 0.00 | 44 | 1017.1 |
| 20260510185208 | 68 | 321 | 4.0 | 6.0 | 0.00 | 0.00 | 0.00 | 45 | 1017.4 |
| 20260510184704 | 66 | 354 | 5.0 | 6.0 | 0.00 | 0.00 | 0.00 | 46 | 1017.2 |
| 20260510184201 | 67 | 356 | 3.0 | 4.0 | 0.00 | 0.00 | 0.00 | 51 | 1017.4 |
| 20260510183656 | 68 | 359 | 1.0 | 1.0 | 0.00 | 0.00 | 0.00 | 51 | 1017.1 |
| 20260510183151 | 67 | 50 | 4.0 | 4.0 | 0.00 | 0.00 | 0.00 | 43 | 1017.2 |
| 20260510182648 | 66 | 339 | 2.0 | 3.0 | 0.00 | 0.00 | 0.00 | 46 | 1017.2 |
| 20260510182143 | 67 | 355 | 4.0 | 4.0 | 0.00 | 0.00 | 0.00 | 46 | 1017.1 |
| 20260510181641 | 67 | 85 | 2.0 | 2.0 | 0.00 | 0.00 | 0.00 | 49 | 1017.2 |
| 20260510181137 | 67 | 324 | 5.0 | 7.0 | 0.00 | 0.00 | 0.00 | 46 | 1017.3 |
| 20260510180633 | 66 | 49 | 2.0 | 2.0 | 0.00 | 0.00 | 0.00 | 49 | 1017.4 |
| 20260510180131 | 65 | 14 | 4.0 | 4.0 | 0.00 | 0.00 | 0.00 | 48 | 1017.4 |
| 20260510175627 | 65 | 38 | 1.0 | 2.0 | 0.00 | 0.00 | 0.00 | 49 | 1017.1 |
| 20260510175122 | 64 | 233 | 3.0 | 4.0 | 0.00 | 0.00 | 0.00 | 47 | 1016.8 |
| 20260510174620 | 66 | 339 | 3.0 | 3.0 | 0.00 | 0.00 | 0.00 | 48 | 1017.0 |
| 20260510174118 | 66 | 2 | 5.0 | 6.0 | 0.00 | 0.00 | 0.00 | 56 | 1016.9 |
| 20260510173613 | 65 | 51 | 2.0 | 3.0 | 0.00 | 0.00 | 0.00 | 51 | 1017.0 |
| 20260510173110 | 66 | 57 | 5.0 | 7.0 | 0.00 | 0.00 | 0.00 | 54 | 1016.9 |
| 20260510172605 | 65 | 49 | 4.0 | 4.0 | 0.00 | 0.00 | 0.00 | 49 | 1017.2 |
| 20260510172102 | 66 | 351 | 7.0 | 8.0 | 0.00 | 0.00 | 0.00 | 50 | 1017.2 |
| 20260510171558 | 65 | 72 | 5.0 | 7.0 | 0.00 | 0.00 | 0.00 | 52 | 1017.0 |
| 20260510171056 | 64 | 325 | 2.0 | 2.0 | 0.00 | 0.00 | 0.00 | 49 | 1017.2 |
| 20260510170552 | 64 | 57 | 5.0 | 7.0 | 0.00 | 0.00 | 0.00 | 54 | 1017.1 |
| 20260510170049 | 64 | 2 | 6.0 | 7.0 | 0.00 | 0.00 | 0.00 | 49 | 1017.1 |
| 20260510165545 | 64 | 4 | 6.0 | 7.0 | 0.00 | 0.00 | 0.00 | 47 | 1017.2 |
| 20260510165041 | 64 | 330 | 4.0 | 6.0 | 0.00 | 0.00 | 0.00 | 46 | 1017.2 |
| 20260510164538 | 65 | 355 | 7.0 | 9.0 | 0.00 | 0.00 | 0.00 | 48 | 1017.3 |
| 20260510164035 | 65 | 75 | 2.0 | 3.0 | 0.00 | 0.00 | 0.00 | 50 | 1017.1 |
| 20260510163530 | 64 | 327 | 3.0 | 3.0 | 0.00 | 0.00 | 0.00 | 56 | 1017.0 |
| 20260510163026 | 64 | 28 | 4.0 | 7.0 | 0.00 | 0.00 | 0.00 | 51 | 1017.5 |
| 20260510162521 | 64 | 44 | 3.0 | 6.0 | 0.00 | 0.00 | 0.00 | 47 | 1017.2 |
| 20260510162013 | 64 | 61 | 4.0 | 6.0 | 0.00 | 0.00 | 0.00 | 49 | 1017.2 |
| 20260510161509 | 64 | 59 | 7.0 | 8.0 | 0.00 | 0.00 | 0.00 | 48 | 1017.1 |
| 20260510161005 | 65 | 58 | 3.0 | 4.0 | 0.00 | 0.00 | 0.00 | 53 | 1017.1 |
| 20260510160457 | 64 | 70 | 7.0 | 9.0 | 0.00 | 0.00 | 0.00 | 52 | 1017.1 |
| 20260510155955 | 64 | 48 | 6.0 | 7.0 | 0.00 | 0.00 | 0.00 | 53 | 1017.1 |
| 20260510155453 | 64 | 2 | 4.0 | 6.0 | 0.00 | 0.00 | 0.00 | 54 | 1017.0 |
| 20260510154949 | 63 | 358 | 4.0 | 4.0 | 0.00 | 0.00 | 0.00 | 54 | 1016.9 |
| 20260510154445 | 63 | 52 | 4.0 | 6.0 | 0.00 | 0.00 | 0.00 | 57 | 1017.1 |
| 20260510153943 | 63 | 43 | 4.0 | 7.0 | 0.00 | 0.00 | 0.00 | 52 | 1016.7 |
| 20260510153435 | 63 | 16 | 6.0 | 9.0 | 0.00 | 0.00 | 0.00 | 55 | 1016.7 |
| 20260510152931 | 62 | 60 | 3.0 | 3.0 | 0.00 | 0.00 | 0.00 | 58 | 1016.8 |
| 20260510152429 | 62 | 19 | 4.0 | 6.0 | 0.00 | 0.00 | 0.00 | 58 | 1016.9 |
| 20260510151925 | 62 | 53 | 1.0 | 3.0 | 0.00 | 0.00 | 0.00 | 59 | 1016.9 |
| 20260510151422 | 62 | 64 | 3.0 | 4.0 | 0.00 | 0.00 | 0.00 | 62 | 1016.5 |
| 20260510150913 | 61 | 34 | 6.0 | 8.0 | 0.00 | 0.00 | 0.00 | 61 | 1016.5 |
| 20260510150409 | 63 | 46 | 7.0 | 8.0 | 0.00 | 0.00 | 0.00 | 56 | 1016.4 |
| 20260510145904 | 63 | 58 | 3.0 | 4.0 | 0.00 | 0.00 | 0.00 | 62 | 1016.2 |
| 20260510145400 | 64 | 66 | 5.0 | 7.0 | 0.00 | 0.00 | 0.00 | 61 | 1016.1 |
| 20260510144857 | 63 | 53 | 6.0 | 8.0 | 0.00 | 0.00 | 0.00 | 61 | 1016.0 |
| 20260510144354 | 62 | 51 | 5.0 | 8.0 | 0.00 | 0.00 | 0.00 | 63 | 1015.7 |
| 20260510143849 | 63 | 83 | 2.0 | 3.0 | 0.00 | 0.00 | 0.00 | 69 | 1015.8 |
| 20260510143345 | 62 | 52 | 5.0 | 7.0 | 0.00 | 0.00 | 0.00 | 66 | 1015.9 |
| 20260510142843 | 62 | 41 | 4.0 | 6.0 | 0.00 | 0.00 | 0.00 | 68 | 1015.7 |
| 20260510142339 | 60 | 32 | 3.0 | 3.0 | 0.00 | 0.00 | 0.00 | 70 | 1015.5 |
| 20260510141836 | 60 | 52 | 2.0 | 3.0 | 0.00 | 0.00 | 0.00 | 71 | 1015.4 |
| 20260510141333 | 60 | 128 | 4.0 | 6.0 | 0.00 | 0.00 | 0.00 | 71 | 1015.3 |
| 20260510140830 | 57 | 49 | 3.0 | 4.0 | 0.00 | 0.00 | 0.00 | 74 | 1015.1 |
| 20260510140326 | 58 | 65 | 4.0 | 4.0 | 0.00 | 0.00 | 0.00 | 75 | 1015.4 |
| 20260510135819 | 58 | 114 | 5.0 | 8.0 | 0.00 | 0.00 | 0.00 | 76 | 1015.3 |
| 20260510135316 | 58 | 60 | 5.0 | 6.0 | 0.00 | 0.00 | 0.00 | 75 | 1015.4 |
| 20260510134814 | 58 | 56 | 4.0 | 7.0 | 0.00 | 0.00 | 0.00 | 73 | 1015.5 |
| 20260510134310 | 58 | 65 | 3.0 | 4.0 | 0.00 | 0.00 | 0.00 | 73 | 1015.4 |
| 20260510133806 | 57 | 59 | 4.0 | 6.0 | 0.00 | 0.00 | 0.00 | 75 | 1015.5 |
| 20260510133302 | 57 | 43 | 2.0 | 3.0 | 0.00 | 0.00 | 0.00 | 77 | 1015.7 |
| 20260510132758 | 56 | 35 | 2.0 | 2.0 | 0.00 | 0.00 | 0.00 | 79 | 1015.7 |
| 20260510132256 | 56 | 46 | 1.0 | 1.0 | 0.00 | 0.00 | 0.00 | 79 | 1015.4 |
| 20260510131753 | 56 | 52 | 0.0 | 1.0 | 0.00 | 0.00 | 0.00 | 79 | 1015.5 |
| 20260510131251 | 56 | 50 | 2.0 | 2.0 | 0.00 | 0.00 | 0.00 | 78 | 1015.2 |
| 20260510130747 | 56 | 61 | 1.0 | 2.0 | 0.00 | 0.00 | 0.00 | 79 | 1015.2 |
| 20260510130244 | 56 | 17 | 2.0 | 3.0 | 0.00 | 0.00 | 0.00 | 79 | 1015.3 |
| 20260510125740 | 56 | 40 | 3.0 | 3.0 | 0.00 | 0.00 | 0.00 | 79 | 1015.2 |
| 20260510125236 | 56 | 14 | 2.0 | 2.0 | 0.00 | 0.00 | 0.00 | 80 | 1015.0 |
| 20260510124733 | 57 | 27 | 2.0 | 3.0 | 0.00 | 0.00 | 0.00 | 79 | 1015.0 |
| 20260510124231 | 57 | 65 | 3.0 | 3.0 | 0.00 | 0.00 | 0.00 | 77 | 1014.6 |
| 20260510123726 | 58 | 18 | 3.0 | 4.0 | 0.00 | 0.00 | 0.00 | 76 | 1014.6 |
| 20260510123222 | 58 | 16 | 2.0 | 6.0 | 0.00 | 0.00 | 0.00 | 78 | 1014.6 |
| 20260510122718 | 57 | 26 | 2.0 | 3.0 | 0.00 | 0.00 | 0.00 | 79 | 1014.6 |
| 20260510122215 | 57 | 28 | 2.0 | 3.0 | 0.00 | 0.00 | 0.00 | 80 | 1014.6 |
| 20260510121711 | 57 | 45 | 3.0 | 3.0 | 0.00 | 0.00 | 0.00 | 80 | 1014.5 |
| 20260510121209 | 57 | 40 | 2.0 | 2.0 | 0.00 | 0.00 | 0.00 | 81 | 1014.7 |
| 20260510120706 | 57 | 45 | 3.0 | 3.0 | 0.00 | 0.00 | 0.00 | 83 | 1014.5 |
| 20260510120202 | 57 | 35 | 3.0 | 3.0 | 0.00 | 0.00 | 0.00 | 82 | 1014.6 |
| 20260510115657 | 57 | 343 | 1.0 | 1.0 | 0.00 | 0.00 | 0.00 | 84 | 1014.5 |
| 20260510115156 | 57 | 7 | 1.0 | 1.0 | 0.00 | 0.00 | 0.00 | 85 | 1014.3 |
| 20260510114646 | 56 | 329 | 0.0 | 0.0 | 0.00 | 0.00 | 0.00 | 86 | 1014.4 |
| 20260510114142 | 56 | 358 | 0.0 | 0.0 | 0.00 | 0.00 | 0.00 | 87 | 1014.2 |
| 20260510113637 | 56 | 354 | 1.0 | 1.0 | 0.00 | 0.00 | 0.00 | 87 | 1013.9 |
| 20260510113135 | 56 | 354 | 2.0 | 2.0 | 0.00 | 0.00 | 0.00 | 87 | 1013.8 |
| 20260510112631 | 56 | 341 | 4.0 | 4.0 | 0.00 | 0.00 | 0.00 | 88 | 1013.9 |
| 20260510112128 | 56 | 346 | 3.0 | 3.0 | 0.00 | 0.00 | 0.00 | 90 | 1013.6 |
| 20260510111624 | 56 | 334 | 4.0 | 4.0 | 0.00 | 0.00 | 0.00 | 91 | 1013.7 |
| 20260510111120 | 55 | 347 | 3.0 | 3.0 | 0.00 | 0.00 | 0.00 | 92 | 1013.7 |
| 20260510110616 | 55 | 339 | 3.0 | 3.0 | 0.00 | 0.00 | 0.00 | 93 | 1013.6 |
| 20260510110113 | 55 | 345 | 3.0 | 3.0 | 0.00 | 0.00 | 0.00 | 92 | 1013.5 |
| 20260510105609 | 55 | 342 | 4.0 | 4.0 | 0.00 | 0.00 | 0.00 | 93 | 1013.4 |
| 20260510105103 | 55 | 336 | 4.0 | 4.0 | 0.00 | 0.00 | 0.00 | 93 | 1013.2 |
| 20260510104601 | 55 | 328 | 2.0 | 2.0 | 0.00 | 0.00 | 0.00 | 94 | 1013.1 |
| 20260510104057 | 55 | 325 | 2.0 | 2.0 | 0.00 | 0.00 | 0.00 | 94 | 1013.0 |
| 20260510103554 | 55 | 313 | 1.0 | 1.0 | 0.00 | 0.00 | 0.00 | 94 | 1012.8 |
| 20260510103050 | 55 | 294 | 2.0 | 2.0 | 0.00 | 0.00 | 0.00 | 94 | 1012.9 |
| 20260510102545 | 55 | 309 | 2.0 | 2.0 | 0.00 | 0.00 | 0.00 | 94 | 1013.0 |
| 20260510102042 | 55 | 315 | 0.0 | 0.0 | 0.00 | 0.00 | 0.00 | 93 | 1012.6 |
| 20260510101540 | 55 | 314 | 0.0 | 0.0 | 0.00 | 0.00 | 0.00 | 93 | 1012.6 |
| 20260510101038 | 55 | 314 | 0.0 | 0.0 | 0.00 | 0.00 | 0.00 | 92 | 1012.3 |
| 20260510100534 | 55 | 314 | 2.0 | 2.0 | 0.00 | 0.00 | 0.00 | 92 | 1012.5 |
| 20260510100032 | 55 | 309 | 1.0 | 2.0 | 0.00 | 0.00 | 0.00 | 91 | 1012.4 |
| 20260510095527 | 56 | 326 | 2.0 | 2.0 | 0.00 | 0.00 | 0.00 | 91 | 1012.4 |
| 20260510095026 | 56 | 326 | 3.0 | 3.0 | 0.00 | 0.00 | 0.00 | 90 | 1012.4 |
| 20260510094521 | 56 | 334 | 2.0 | 2.0 | 0.00 | 0.00 | 0.00 | 90 | 1012.2 |
| 20260510094017 | 56 | 321 | 0.0 | 0.0 | 0.00 | 0.00 | 0.00 | 89 | 1011.8 |
| 20260510093513 | 56 | 314 | 0.0 | 0.0 | 0.00 | 0.00 | 0.00 | 89 | 1012.1 |
| 20260510093010 | 56 | 300 | 2.0 | 2.0 | 0.00 | 0.00 | 0.00 | 90 | 1012.2 |
| 20260510092507 | 56 | 272 | 1.0 | 1.0 | 0.00 | 0.00 | 0.00 | 91 | 1012.2 |
| 20260510092006 | 56 | 242 | 0.0 | 0.0 | 0.00 | 0.00 | 0.00 | 90 | 1012.0 |
| 20260510091504 | 56 | 242 | 1.0 | 2.0 | 0.00 | 0.00 | 0.00 | 91 | 1011.8 |
| 20260510090959 | 56 | 240 | 2.0 | 2.0 | 0.00 | 0.00 | 0.00 | 90 | 1011.7 |
| 20260510090457 | 56 | 233 | 2.0 | 3.0 | 0.00 | 0.00 | 0.00 | 90 | 1011.6 |
| 20260510085952 | 56 | 240 | 3.0 | 3.0 | 0.00 | 0.00 | 0.00 | 90 | 1011.4 |
| 20260510085447 | 57 | 232 | 1.0 | 1.0 | 0.00 | 0.00 | 0.00 | 88 | 1011.4 |
| 20260510084943 | 57 | 211 | 0.0 | 0.0 | 0.00 | 0.00 | 0.00 | 87 | 1011.3 |
| 20260510084440 | 57 | 250 | 0.0 | 0.0 | 0.00 | 0.00 | 0.00 | 87 | 1011.1 |
| 20260510083937 | 57 | 242 | 0.0 | 0.0 | 0.00 | 0.00 | 0.00 | 87 | 1011.2 |
| 20260510083434 | 57 | 63 | 0.0 | 0.0 | 0.00 | 0.00 | 0.00 | 87 | 1011.3 |
| 20260510082929 | 57 | 63 | 0.0 | 0.0 | 0.00 | 0.00 | 0.00 | 87 | 1011.1 |
| 20260510082427 | 57 | 64 | 0.0 | 1.0 | 0.00 | 0.00 | 0.00 | 87 | 1010.9 |
| 20260510081926 | 58 | 222 | 0.0 | 0.0 | 0.00 | 0.00 | 0.00 | 86 | 1011.0 |
| 20260510081422 | 58 | 230 | 1.0 | 1.0 | 0.00 | 0.00 | 0.00 | 86 | 1011.0 |
| 20260510080918 | 59 | 230 | 0.0 | 0.0 | 0.00 | 0.00 | 0.00 | 85 | 1010.9 |
| 20260510080417 | 59 | 229 | 1.0 | 1.0 | 0.00 | 0.00 | 0.00 | 84 | 1010.8 |
| 20260510075914 | 59 | 230 | 2.0 | 2.0 | 0.00 | 0.00 | 0.00 | 83 | 1010.6 |
| 20260510075412 | 60 | 230 | 2.0 | 2.0 | 0.00 | 0.00 | 0.00 | 82 | 1010.8 |
| 20260510074909 | 60 | 242 | 1.0 | 2.0 | 0.00 | 0.00 | 0.00 | 81 | 1010.8 |
| 20260510074406 | 60 | 261 | 3.0 | 3.0 | 0.00 | 0.00 | 0.00 | 82 | 1010.8 |
| 20260510073902 | 60 | 281 | 2.0 | 2.0 | 0.00 | 0.00 | 0.00 | 82 | 1010.7 |
| 20260510073358 | 60 | 288 | 3.0 | 3.0 | 0.00 | 0.00 | 0.00 | 82 | 1010.7 |
| 20260510072854 | 60 | 231 | 3.0 | 3.0 | 0.00 | 0.00 | 0.00 | 82 | 1010.6 |
| 20260510072351 | 60 | 239 | 3.0 | 3.0 | 0.00 | 0.00 | 0.00 | 82 | 1010.8 |
| 20260510071847 | 60 | 254 | 3.0 | 3.0 | 0.00 | 0.00 | 0.00 | 83 | 1010.9 |
| 20260510071343 | 60 | 236 | 1.0 | 1.0 | 0.00 | 0.00 | 0.00 | 83 | 1010.8 |
| 20260510070842 | 60 | 232 | 4.0 | 4.0 | 0.00 | 0.00 | 0.00 | 84 | 1010.8 |
| 20260510070338 | 60 | 226 | 2.0 | 3.0 | 0.00 | 0.00 | 0.00 | 84 | 1011.0 |
| 20260510065833 | 60 | 268 | 3.0 | 3.0 | 0.00 | 0.00 | 0.00 | 85 | 1011.1 |
| 20260510065330 | 60 | 243 | 2.0 | 2.0 | 0.00 | 0.00 | 0.00 | 85 | 1010.8 |
| 20260510064827 | 60 | 223 | 4.0 | 4.0 | 0.00 | 0.00 | 0.00 | 84 | 1010.9 |
| 20260510064325 | 61 | 230 | 3.0 | 4.0 | 0.00 | 0.00 | 0.00 | 84 | 1011.3 |
| 20260510063820 | 61 | 238 | 4.0 | 4.0 | 0.00 | 0.00 | 0.00 | 83 | 1011.1 |
| 20260510063311 | 61 | 243 | 3.0 | 3.0 | 0.00 | 0.00 | 0.00 | 82 | 1011.0 |
| 20260510062808 | 61 | 246 | 2.0 | 3.0 | 0.00 | 0.00 | 0.00 | 82 | 1011.2 |
| 20260510062306 | 61 | 272 | 4.0 | 4.0 | 0.00 | 0.00 | 0.00 | 82 | 1011.1 |
| 20260510061759 | 61 | 284 | 3.0 | 4.0 | 0.00 | 0.00 | 0.00 | 83 | 1011.4 |
| 20260510061257 | 60 | 288 | 4.0 | 4.0 | 0.00 | 0.00 | 0.00 | 83 | 1011.3 |
| 20260510060752 | 60 | 270 | 2.0 | 3.0 | 0.00 | 0.00 | 0.00 | 84 | 1010.9 |
| 20260510060250 | 61 | 254 | 4.0 | 4.0 | 0.00 | 0.00 | 0.00 | 82 | 1010.9 |
| 20260510055746 | 61 | 230 | 7.0 | 8.0 | 0.00 | 0.00 | 0.00 | 82 | 1010.9 |
| 20260510055245 | 61 | 249 | 6.0 | 8.0 | 0.00 | 0.00 | 0.00 | 81 | 1010.6 |
| 20260510054744 | 61 | 231 | 4.0 | 4.0 | 0.00 | 0.00 | 0.00 | 83 | 1010.9 |
| 20260510054241 | 61 | 201 | 6.0 | 7.0 | 0.00 | 0.00 | 0.00 | 82 | 1010.7 |
| 20260510053740 | 61 | 190 | 6.0 | 7.0 | 0.00 | 0.00 | 0.00 | 82 | 1010.7 |
| 20260510053237 | 61 | 214 | 6.0 | 7.0 | 0.00 | 0.00 | 0.00 | 82 | 1010.9 |
| 20260510052732 | 61 | 217 | 6.0 | 7.0 | 0.00 | 0.00 | 0.00 | 82 | 1010.6 |
| 20260510052228 | 61 | 229 | 6.0 | 7.0 | 0.00 | 0.00 | 0.00 | 82 | 1010.8 |
| 20260510051725 | 61 | 222 | 7.0 | 8.0 | 0.00 | 0.00 | 0.00 | 81 | 1010.8 |
| 20260510051221 | 61 | 199 | 7.0 | 8.0 | 0.00 | 0.00 | 0.00 | 81 | 1010.7 |
| 20260510050718 | 61 | 210 | 6.0 | 7.0 | 0.00 | 0.00 | 0.00 | 82 | 1010.5 |
| 20260510050216 | 61 | 217 | 6.0 | 8.0 | 0.00 | 0.00 | 0.00 | 83 | 1010.6 |
| 20260510045712 | 61 | 210 | 8.0 | 8.0 | 0.00 | 0.00 | 0.00 | 82 | 1010.7 |
| 20260510045209 | 61 | 221 | 6.0 | 7.0 | 0.00 | 0.00 | 0.00 | 81 | 1010.5 |
| 20260510044705 | 61 | 219 | 7.0 | 8.0 | 0.00 | 0.00 | 0.00 | 82 | 1010.4 |
| 20260510044203 | 61 | 223 | 8.0 | 9.0 | 0.00 | 0.00 | 0.00 | 80 | 1010.4 |
| 20260510043658 | 61 | 213 | 7.0 | 8.0 | 0.00 | 0.00 | 0.00 | 81 | 1010.5 |
| 20260510043155 | 61 | 215 | 8.0 | 9.0 | 0.00 | 0.00 | 0.00 | 81 | 1010.4 |
| 20260510042652 | 61 | 230 | 8.0 | 9.0 | 0.00 | 0.00 | 0.00 | 81 | 1010.4 |
| 20260510042148 | 61 | 233 | 7.0 | 8.0 | 0.00 | 0.00 | 0.00 | 81 | 1010.5 |
| 20260510041646 | 61 | 229 | 8.0 | 9.0 | 0.00 | 0.00 | 0.00 | 80 | 1010.6 |
| 20260510041143 | 62 | 214 | 9.0 | 9.0 | 0.00 | 0.00 | 0.00 | 79 | 1010.5 |
| 20260510040640 | 62 | 223 | 7.0 | 8.0 | 0.00 | 0.00 | 0.00 | 80 | 1010.3 |
| 20260510040136 | 62 | 228 | 9.0 | 10.0 | 0.00 | 0.00 | 0.00 | 78 | 1010.3 |
| 20260510035632 | 62 | 220 | 11.0 | 11.0 | 0.00 | 0.29 | 0.29 | 78 | 1010.2 |
| 20260510035127 | 62 | 234 | 9.0 | 11.0 | 0.00 | 0.29 | 0.29 | 78 | 1010.2 |
| 20260510034625 | 62 | 221 | 7.0 | 9.0 | 0.00 | 0.29 | 0.29 | 78 | 1010.2 |
| 20260510034121 | 62 | 232 | 9.0 | 10.0 | 0.00 | 0.29 | 0.29 | 77 | 1010.3 |
| 20260510033618 | 62 | 230 | 6.0 | 8.0 | 0.00 | 0.29 | 0.29 | 78 | 1010.3 |
| 20260510033116 | 63 | 228 | 9.0 | 10.0 | 0.00 | 0.29 | 0.29 | 76 | 1010.0 |
| 20260510032612 | 63 | 218 | 7.0 | 8.0 | 0.00 | 0.29 | 0.29 | 76 | 1010.0 |
| 20260510032107 | 62 | 203 | 7.0 | 7.0 | 0.00 | 0.29 | 0.29 | 77 | 1010.0 |
| 20260510031602 | 63 | 210 | 9.0 | 10.0 | 0.00 | 0.29 | 0.29 | 76 | 1010.3 |
| 20260510031059 | 63 | 217 | 8.0 | 9.0 | 0.00 | 0.29 | 0.29 | 75 | 1010.1 |
| 20260510030554 | 63 | 223 | 7.0 | 8.0 | 0.00 | 0.29 | 0.29 | 74 | 1010.3 |
| 20260510030051 | 63 | 215 | 9.0 | 10.0 | 0.00 | 0.29 | 0.29 | 74 | 1010.1 |
| 20260510025543 | 63 | 212 | 7.0 | 8.0 | 0.00 | 0.29 | 0.29 | 74 | 1009.9 |
| 20260510025040 | 63 | 244 | 6.0 | 7.0 | 0.00 | 0.29 | 0.29 | 73 | 1009.9 |
| 20260510024537 | 64 | 214 | 6.0 | 8.0 | 0.00 | 0.29 | 0.29 | 73 | 1010.1 |
| 20260510024033 | 64 | 208 | 9.0 | 9.0 | 0.00 | 0.29 | 0.29 | 71 | 1009.8 |
| 20260510023529 | 64 | 225 | 7.0 | 8.0 | 0.00 | 0.29 | 0.29 | 71 | 1009.8 |
| 20260510023026 | 64 | 205 | 7.0 | 8.0 | 0.00 | 0.29 | 0.29 | 71 | 1010.0 |
| 20260510022525 | 64 | 216 | 8.0 | 9.0 | 0.00 | 0.29 | 0.29 | 70 | 1009.9 |
| 20260510022020 | 64 | 223 | 7.0 | 8.0 | 0.00 | 0.29 | 0.29 | 70 | 1009.6 |
| 20260510021517 | 64 | 196 | 6.0 | 7.0 | 0.00 | 0.29 | 0.29 | 71 | 1009.6 |
| 20260510021014 | 63 | 196 | 7.0 | 8.0 | 0.00 | 0.29 | 0.29 | 70 | 1009.4 |
| 20260510020508 | 63 | 212 | 6.0 | 7.0 | 0.00 | 0.29 | 0.29 | 71 | 1009.5 |
| 20260510020004 | 63 | 209 | 6.0 | 7.0 | 0.00 | 0.29 | 0.29 | 70 | 1009.6 |
| 20260510015454 | 63 | 206 | 5.0 | 6.0 | 0.00 | 0.29 | 0.29 | 69 | 1009.5 |
| 20260510014949 | 64 | 211 | 5.0 | 7.0 | 0.00 | 0.29 | 0.29 | 68 | 1009.5 |
| 20260510014447 | 63 | 203 | 4.0 | 4.0 | 0.00 | 0.29 | 0.29 | 69 | 1009.3 |
| 20260510013944 | 63 | 208 | 3.0 | 3.0 | 0.00 | 0.29 | 0.29 | 70 | 1009.3 |
| 20260510013433 | 63 | 225 | 4.0 | 4.0 | 0.00 | 0.29 | 0.29 | 69 | 1009.3 |
| 20260510012929 | 63 | 205 | 4.0 | 4.0 | 0.00 | 0.29 | 0.29 | 70 | 1009.3 |
| 20260510012424 | 64 | 209 | 4.0 | 4.0 | 0.00 | 0.29 | 0.29 | 68 | 1009.0 |
| 20260510011919 | 64 | 226 | 4.0 | 4.0 | 0.00 | 0.29 | 0.29 | 68 | 1009.0 |
| 20260510011414 | 64 | 224 | 3.0 | 3.0 | 0.00 | 0.29 | 0.29 | 69 | 1008.8 |
| 20260510010910 | 64 | 225 | 2.0 | 3.0 | 0.00 | 0.29 | 0.29 | 69 | 1008.8 |
| 20260510010408 | 64 | 210 | 5.0 | 6.0 | 0.00 | 0.29 | 0.29 | 68 | 1008.6 |
| 20260510005904 | 64 | 221 | 4.0 | 4.0 | 0.00 | 0.29 | 0.29 | 68 | 1008.9 |
| 20260510005401 | 64 | 218 | 3.0 | 3.0 | 0.00 | 0.29 | 0.29 | 69 | 1008.7 |
| 20260510004858 | 64 | 226 | 4.0 | 4.0 | 0.00 | 0.29 | 0.29 | 69 | 1008.7 |
| 20260510004355 | 65 | 223 | 4.0 | 4.0 | 0.00 | 0.29 | 0.29 | 68 | 1008.6 |
| 20260510003853 | 65 | 226 | 5.0 | 6.0 | 0.00 | 0.29 | 0.29 | 67 | 1008.6 |
| 20260510003350 | 65 | 232 | 5.0 | 6.0 | 0.00 | 0.29 | 0.29 | 66 | 1008.6 |
| 20260510002848 | 65 | 230 | 4.0 | 4.0 | 0.00 | 0.29 | 0.29 | 67 | 1008.8 |
| 20260510002346 | 66 | 231 | 4.0 | 4.0 | 0.00 | 0.29 | 0.29 | 66 | 1008.3 |
| 20260510001843 | 67 | 235 | 3.0 | 3.0 | 0.00 | 0.29 | 0.29 | 64 | 1008.4 |
| 20260510001341 | 68 | 236 | 4.0 | 4.0 | 0.00 | 0.29 | 0.29 | 62 | 1008.2 |
| 20260510000837 | 68 | 228 | 7.0 | 8.0 | 0.00 | 0.29 | 0.29 | 59 | 1008.3 |
| 20260510000334 | 68 | 228 | 6.0 | 7.0 | 0.00 | 0.29 | 0.29 | 58 | 1008.0 |
| 20260509235831 | 69 | 230 | 6.0 | 7.0 | 0.00 | 0.29 | 0.29 | 59 | 1008.0 |
| 20260509235327 | 69 | 228 | 5.0 | 6.0 | 0.00 | 0.29 | 0.29 | 58 | 1008.2 |
| 20260509234823 | 69 | 249 | 8.0 | 9.0 | 0.00 | 0.29 | 0.29 | 57 | 1007.9 |
| 20260509234320 | 70 | 240 | 9.0 | 10.0 | 0.00 | 0.29 | 0.29 | 55 | 1008.0 |
| 20260509233818 | 70 | 232 | 7.0 | 10.0 | 0.00 | 0.29 | 0.29 | 56 | 1007.9 |
| 20260509233316 | 70 | 223 | 8.0 | 9.0 | 0.00 | 0.29 | 0.29 | 56 | 1008.0 |
| 20260509232811 | 71 | 221 | 11.0 | 13.0 | 0.00 | 0.29 | 0.29 | 56 | 1007.8 |
| 20260509232309 | 71 | 226 | 6.0 | 7.0 | 0.00 | 0.29 | 0.29 | 56 | 1007.6 |
| 20260509231805 | 71 | 233 | 8.0 | 9.0 | 0.00 | 0.29 | 0.29 | 56 | 1007.6 |
| 20260509231302 | 71 | 229 | 8.0 | 9.0 | 0.00 | 0.29 | 0.29 | 54 | 1007.5 |
| 20260509230800 | 71 | 233 | 7.0 | 8.0 | 0.00 | 0.29 | 0.29 | 56 | 1007.7 |
| 20260509230257 | 71 | 234 | 9.0 | 13.0 | 0.00 | 0.29 | 0.29 | 55 | 1007.7 |
| 20260509225751 | 71 | 214 | 9.0 | 10.0 | 0.00 | 0.29 | 0.29 | 54 | 1007.7 |
| 20260509225248 | 71 | 194 | 11.0 | 13.0 | 0.00 | 0.29 | 0.29 | 55 | 1007.8 |
| 20260509224744 | 71 | 249 | 12.0 | 14.0 | 0.00 | 0.29 | 0.29 | 53 | 1007.8 |
| 20260509224241 | 71 | 254 | 7.0 | 9.0 | 0.00 | 0.29 | 0.29 | 54 | 1008.0 |
| 20260509223738 | 71 | 229 | 10.0 | 11.0 | 0.00 | 0.29 | 0.29 | 56 | 1007.8 |
| 20260509223235 | 71 | 222 | 12.0 | 13.0 | 0.00 | 0.29 | 0.29 | 55 | 1007.7 |
| 20260509222732 | 71 | 221 | 10.0 | 11.0 | 0.00 | 0.29 | 0.29 | 54 | 1007.9 |
| 20260509222227 | 71 | 226 | 7.0 | 9.0 | 0.00 | 0.29 | 0.29 | 57 | 1007.7 |
| 20260509221723 | 71 | 230 | 9.0 | 10.0 | 0.00 | 0.29 | 0.29 | 55 | 1007.5 |
| 20260509221219 | 71 | 226 | 13.0 | 15.0 | 0.00 | 0.29 | 0.29 | 53 | 1007.8 |
| 20260509220715 | 71 | 227 | 13.0 | 15.0 | 0.00 | 0.29 | 0.29 | 54 | 1007.7 |